Los Angeles/Van Nuys

Airport
ICAO code: 
KVNY
Summary
ICAO Region: 
NAM
Territory: 
Location: 
Van Nuys, Los Angeles, California,
Coordinates: 
Aerial View: 
34° 12' 35.283" N, 118° 29' 23.992" W
Metar
Observation
KVNY 201051Z AUTO 16006KT 9SM OVC007 14/12 A2977 RMK AO2 CIG 006V011 SLP075 T01440122
Station
Van Nuys, Van Nuys Airport
Date/Time
2022-05-20 10:51:00
Wind direction
160°
Wind speed
06 kts
Lowest cloud amount
overcast
Temperature
14.4°C
Dew point
12.2°C
Humidity
86%
Weather condition
n/a

Description

Van Nuys Airport is a public airport located in Van Nuys in the San Fernando Valley section of the city limits of Los Angeles, California, United States. No major commercial airlines fly into this airport; it is used by private, chartered, and small commercial aircraft.

Climatology

Mediterranean climate or Dry-Summer Subtropical (Köppen climate classification Csa) - Summers are warm to hot and dry. Winters are mild and somewhat rainy. Spring and autumn bring mild days with cool evenings and are generally dry.

Runways

Designator Length Width Surface Rops
16L/34R 1223 23 ASP Yes/Yes
16R/34L 2439 46 ASP Yes/Yes
Airport map: 
Aerial View: 

SKYbrary Partners:

Safety knowledge contributed by: